Location: SBMNH
(34.4407°N, 119.7157°W)
Time: 20:39:02
(UTC-07:00)

X-37B - Pass Details

Date: 22 August 2022
Orbit: 329 x 342 km, 45.0° (Epoch: 29 September)

Event Time Altitude Azimuth Distance (km) Brightness Sun altitude
Rises 20:33:24 0° 257° (WSW) 2,078 5.2 -11.7°
Reaches altitude 10° 20:35:30 10° 267° (W) 1,247 4.2 -12.1°
Maximum altitude 20:38:04 32° 334° (NNW) 592 2.0 -12.6°
Drops below altitude 10° 20:40:38 10° 41° (NE) 1,255 3.0 -13.1°
Enters shadow 20:41:24 - 46° (NE) 1,549 3.4 -13.2°
